| time (UTC) | temp F | wind direction | speed MPH | gust MPH | rain 1hr in | rain 24hr in | rain mn in | humidity % | barometer mb |
| 20260503025045 | 52 | 0 | 0.0 | 1.0 | 0.00 | 0.00 | 0.00 | 55 | 1018.6 |
| 20260503024559 | 53 | 0 | 0.0 | 1.0 | 0.00 | 0.00 | 0.00 | 55 | 1018.7 |
| 20260503024045 | 53 | 0 | 0.0 | 1.0 | 0.00 | 0.00 | 0.00 | 55 | 1018.6 |
| 20260503023543 | 53 | 0 | 0.0 | 1.0 | 0.00 | 0.00 | 0.00 | 55 | 1018.6 |
| 20260503023054 | 53 | 0 | 0.0 | 2.0 | 0.00 | 0.00 | 0.00 | 56 | 1018.5 |
| 20260503022542 | 53 | 0 | 0.0 | 2.0 | 0.00 | 0.00 | 0.00 | 57 | 1018.6 |
| 20260503022043 | 53 | 0 | 0.0 | 2.0 | 0.00 | 0.00 | 0.00 | 57 | 1018.6 |
| 20260503021553 | 53 | 0 | 0.0 | 0.0 | 0.00 | 0.00 | 0.00 | 58 | 1018.6 |
| 20260503021043 | 53 | 0 | 0.0 | 0.0 | 0.00 | 0.00 | 0.00 | 57 | 1018.6 |
| 20260503020543 | 53 | 0 | 0.0 | 0.0 | 0.00 | 0.00 | 0.00 | 56 | 1018.6 |
| 20260503020056 | 54 | 0 | 0.0 | 0.0 | 0.00 | 0.00 | 0.00 | 55 | 1018.7 |
| 20260503015546 | 54 | 0 | 0.0 | 0.0 | 0.00 | 0.00 | 0.00 | 53 | 1018.6 |
| 20260503015043 | 54 | 0 | 0.0 | 0.0 | 0.00 | 0.00 | 0.00 | 52 | 1018.5 |
| 20260503014552 | 54 | 0 | 0.0 | 0.0 | 0.00 | 0.00 | 0.00 | 51 | 1018.6 |
| 20260503014044 | 55 | 0 | 0.0 | 0.0 | 0.00 | 0.00 | 0.00 | 50 | 1018.6 |
| 20260503013544 | 55 | 0 | 0.0 | 0.0 | 0.00 | 0.00 | 0.00 | 48 | 1018.5 |
| 20260503013053 | 56 | 0 | 0.0 | 0.0 | 0.00 | 0.00 | 0.00 | 47 | 1018.5 |
| 20260503012610 | 56 | 0 | 0.0 | 0.0 | 0.00 | 0.00 | 0.00 | 46 | 1018.6 |
| 20260503012043 | 57 | 0 | 0.0 | 1.0 | 0.00 | 0.00 | 0.00 | 45 | 1018.6 |
| 20260503011605 | 57 | 0 | 0.0 | 1.0 | 0.00 | 0.00 | 0.00 | 43 | 1018.5 |
| 20260503011044 | 58 | 0 | 0.0 | 0.0 | 0.00 | 0.00 | 0.00 | 42 | 1018.5 |
| 20260503010543 | 59 | 0 | 0.0 | 0.0 | 0.00 | 0.00 | 0.00 | 40 | 1018.5 |
| 20260503010058 | 59 | 0 | 0.0 | 0.0 | 0.00 | 0.00 | 0.00 | 40 | 1018.5 |
| 20260503005544 | 60 | 0 | 0.0 | 2.0 | 0.00 | 0.00 | 0.00 | 37 | 1018.6 |
| 20260503005043 | 61 | 0 | 0.0 | 3.0 | 0.00 | 0.00 | 0.00 | 36 | 1018.6 |
| 20260503004550 | 62 | 205 | 0.0 | 3.0 | 0.00 | 0.00 | 0.00 | 34 | 1018.6 |
| 20260503004043 | 62 | 193 | 0.0 | 4.0 | 0.00 | 0.00 | 0.00 | 34 | 1018.5 |
| 20260503003543 | 62 | 232 | 1.0 | 4.0 | 0.00 | 0.00 | 0.00 | 32 | 1018.6 |
| 20260503003104 | 62 | 195 | 0.0 | 4.0 | 0.00 | 0.00 | 0.00 | 34 | 1018.5 |
| 20260503002543 | 63 | 215 | 0.0 | 4.0 | 0.00 | 0.00 | 0.00 | 33 | 1018.6 |
| 20260503002046 | 63 | 0 | 1.0 | 4.0 | 0.00 | 0.00 | 0.00 | 33 | 1018.6 |
| 20260503001546 | 63 | 0 | 0.0 | 3.0 | 0.00 | 0.00 | 0.00 | 32 | 1018.6 |
| 20260503001044 | 63 | 0 | 1.0 | 3.0 | 0.00 | 0.00 | 0.00 | 31 | 1018.6 |
| 20260503000544 | 63 | 0 | 0.0 | 2.0 | 0.00 | 0.00 | 0.00 | 31 | 1018.7 |
| 20260503000050 | 63 | 0 | 0.0 | 3.0 | 0.00 | 0.00 | 0.00 | 30 | 1018.7 |
| 20260502235543 | 63 | 233 | 0.0 | 3.0 | 0.00 | 0.00 | 0.00 | 29 | 1018.8 |
| 20260502235043 | 63 | 233 | 1.0 | 3.0 | 0.00 | 0.00 | 0.00 | 30 | 1018.9 |
| 20260502234553 | 63 | 260 | 0.0 | 4.0 | 0.00 | 0.00 | 0.00 | 30 | 1018.8 |
| 20260502234045 | 63 | 209 | 2.0 | 4.0 | 0.00 | 0.00 | 0.00 | 30 | 1019.0 |
| 20260502233544 | 63 | 221 | 1.0 | 3.0 | 0.00 | 0.00 | 0.00 | 29 | 1018.9 |
| 20260502233051 | 64 | 0 | 1.0 | 4.0 | 0.00 | 0.00 | 0.00 | 30 | 1019.1 |
| 20260502232544 | 64 | 0 | 0.0 | 4.0 | 0.00 | 0.00 | 0.00 | 31 | 1019.1 |
| 20260502232044 | 64 | 228 | 1.0 | 4.0 | 0.00 | 0.00 | 0.00 | 29 | 1019.1 |
| 20260502231556 | 64 | 273 | 0.0 | 5.0 | 0.00 | 0.00 | 0.00 | 30 | 1019.1 |
| 20260502231044 | 64 | 0 | 1.0 | 5.0 | 0.00 | 0.00 | 0.00 | 31 | 1019.2 |
| 20260502230544 | 64 | 323 | 0.0 | 5.0 | 0.00 | 0.00 | 0.00 | 31 | 1019.2 |
| 20260502230057 | 65 | 313 | 1.0 | 5.0 | 0.00 | 0.00 | 0.00 | 29 | 1019.3 |
| 20260502225543 | 65 | 0 | 1.0 | 6.0 | 0.00 | 0.00 | 0.00 | 29 | 1019.3 |
| 20260502225043 | 65 | 204 | 1.0 | 8.0 | 0.00 | 0.00 | 0.00 | 29 | 1019.3 |
| 20260502224556 | 65 | 206 | 2.0 | 8.0 | 0.00 | 0.00 | 0.00 | 28 | 1019.3 |
| 20260502224043 | 66 | 175 | 1.0 | 6.0 | 0.00 | 0.00 | 0.00 | 28 | 1019.4 |
| 20260502223545 | 66 | 265 | 0.0 | 7.0 | 0.00 | 0.00 | 0.00 | 28 | 1019.3 |
| 20260502223052 | 66 | 0 | 1.0 | 7.0 | 0.00 | 0.00 | 0.00 | 29 | 1019.3 |
| 20260502222543 | 66 | 230 | 3.0 | 7.0 | 0.00 | 0.00 | 0.00 | 27 | 1019.4 |
| 20260502222109 | 66 | 125 | 1.0 | 5.0 | 0.00 | 0.00 | 0.00 | 29 | 1019.3 |
| 20260502221548 | 66 | 248 | 0.0 | 5.0 | 0.00 | 0.00 | 0.00 | 31 | 1019.5 |
| 20260502221043 | 66 | 0 | 1.0 | 5.0 | 0.00 | 0.00 | 0.00 | 30 | 1019.4 |
| 20260502220540 | 65 | 223 | 1.0 | 4.0 | 0.00 | 0.00 | 0.00 | 27 | 1019.6 |
| 20260502220133 | 65 | 244 | 0.0 | 4.0 | 0.00 | 0.00 | 0.00 | 30 | 1019.6 |
| 20260502215543 | 65 | 286 | 0.0 | 5.0 | 0.00 | 0.00 | 0.00 | 28 | 1019.6 |
| 20260502215044 | 66 | 210 | 0.0 | 5.0 | 0.00 | 0.00 | 0.00 | 29 | 1019.7 |
| 20260502214552 | 66 | 220 | 1.0 | 3.0 | 0.00 | 0.00 | 0.00 | 30 | 1019.7 |
| 20260502214043 | 65 | 0 | 1.0 | 3.0 | 0.00 | 0.00 | 0.00 | 32 | 1019.7 |
| 20260502213543 | 64 | 0 | 0.0 | 4.0 | 0.00 | 0.00 | 0.00 | 29 | 1019.8 |
| 20260502213058 | 65 | 151 | 2.0 | 5.0 | 0.00 | 0.00 | 0.00 | 30 | 1019.8 |
| 20260502212543 | 66 | 194 | 0.0 | 5.0 | 0.00 | 0.00 | 0.00 | 30 | 1019.9 |
| 20260502212043 | 66 | 274 | 1.0 | 6.0 | 0.00 | 0.00 | 0.00 | 28 | 1020.0 |
| 20260502211549 | 66 | 209 | 2.0 | 9.0 | 0.00 | 0.00 | 0.00 | 29 | 1020.1 |
| 20260502211047 | 66 | 240 | 2.0 | 9.0 | 0.00 | 0.00 | 0.00 | 29 | 1020.2 |
| 20260502210542 | 67 | 0 | 2.0 | 8.0 | 0.00 | 0.00 | 0.00 | 30 | 1020.2 |
| 20260502205543 | 67 | 0 | 2.0 | 8.0 | 0.00 | 0.00 | 0.00 | 30 | 1020.3 |
| 20260502205043 | 66 | 0 | 0.0 | 8.0 | 0.00 | 0.00 | 0.00 | 28 | 1020.3 |
| 20260502204606 | 65 | 267 | 2.0 | 8.0 | 0.00 | 0.00 | 0.00 | 32 | 1020.4 |
| 20260502204044 | 66 | 0 | 0.0 | 6.0 | 0.00 | 0.00 | 0.00 | 32 | 1020.4 |
| 20260502203544 | 66 | 195 | 2.0 | 8.0 | 0.00 | 0.00 | 0.00 | 30 | 1020.5 |
| 20260502203101 | 66 | 163 | 1.0 | 8.0 | 0.00 | 0.00 | 0.00 | 31 | 1020.5 |
| 20260502202545 | 65 | 275 | 1.0 | 5.0 | 0.00 | 0.00 | 0.00 | 29 | 1020.6 |
| 20260502202043 | 66 | 344 | 1.0 | 7.0 | 0.00 | 0.00 | 0.00 | 30 | 1020.6 |
| 20260502201551 | 66 | 196 | 3.0 | 7.0 | 0.00 | 0.00 | 0.00 | 28 | 1020.7 |
| 20260502201044 | 65 | 207 | 0.0 | 9.0 | 0.00 | 0.00 | 0.00 | 31 | 1020.7 |
| 20260502200543 | 65 | 61 | 1.0 | 9.0 | 0.00 | 0.00 | 0.00 | 29 | 1020.7 |
| 20260502200053 | 67 | 355 | 1.0 | 5.0 | 0.00 | 0.00 | 0.00 | 27 | 1020.7 |
| 20260502195543 | 66 | 265 | 1.0 | 5.0 | 0.00 | 0.00 | 0.00 | 28 | 1020.7 |
| 20260502195039 | 63 | 150 | 0.0 | 4.0 | 0.00 | 0.00 | 0.00 | 34 | 1020.9 |
| 20260502194554 | 64 | 44 | 2.0 | 5.0 | 0.00 | 0.00 | 0.00 | 30 | 1021.1 |
| 20260502194043 | 64 | 0 | 0.0 | 9.0 | 0.00 | 0.00 | 0.00 | 29 | 1021.0 |
| 20260502193543 | 66 | 42 | 2.0 | 9.0 | 0.00 | 0.00 | 0.00 | 27 | 1021.0 |
| 20260502193057 | 66 | 320 | 2.0 | 9.0 | 0.00 | 0.00 | 0.00 | 29 | 1021.1 |
| 20260502192545 | 65 | 325 | 2.0 | 8.0 | 0.00 | 0.00 | 0.00 | 29 | 1021.0 |
| 20260502192043 | 65 | 260 | 1.0 | 8.0 | 0.00 | 0.00 | 0.00 | 33 | 1021.1 |
| 20260502191600 | 63 | 0 | 2.0 | 8.0 | 0.00 | 0.00 | 0.00 | 34 | 1021.3 |
| 20260502191047 | 63 | 0 | 0.0 | 4.0 | 0.00 | 0.00 | 0.00 | 32 | 1021.4 |
| 20260502190544 | 62 | 22 | 1.0 | 4.0 | 0.00 | 0.00 | 0.00 | 33 | 1021.4 |
| 20260502190104 | 63 | 28 | 0.0 | 6.0 | 0.00 | 0.00 | 0.00 | 31 | 1021.5 |
| 20260502185543 | 65 | 5 | 2.0 | 6.0 | 0.00 | 0.00 | 0.00 | 33 | 1021.6 |
| 20260502185043 | 63 | 26 | 1.0 | 6.0 | 0.00 | 0.00 | 0.00 | 30 | 1021.6 |
| 20260502184550 | 64 | 0 | 0.0 | 3.0 | 0.00 | 0.00 | 0.00 | 38 | 1021.6 |
| 20260502184043 | 62 | 38 | 1.0 | 3.0 | 0.00 | 0.00 | 0.00 | 31 | 1021.6 |
| 20260502183543 | 62 | 0 | 0.0 | 4.0 | 0.00 | 0.00 | 0.00 | 32 | 1021.7 |
| 20260502183058 | 61 | 126 | 1.0 | 4.0 | 0.00 | 0.00 | 0.00 | 37 | 1021.7 |
| 20260502182544 | 62 | 5 | 1.0 | 5.0 | 0.00 | 0.00 | 0.00 | 39 | 1021.9 |
| 20260502182043 | 62 | 19 | 1.0 | 5.0 | 0.00 | 0.00 | 0.00 | 35 | 1021.9 |
| 20260502181553 | 62 | 349 | 1.0 | 5.0 | 0.00 | 0.00 | 0.00 | 33 | 1021.9 |
| 20260502181044 | 62 | 5 | 0.0 | 4.0 | 0.00 | 0.00 | 0.00 | 36 | 1022.1 |
| 20260502180540 | 62 | 360 | 0.0 | 6.0 | 0.00 | 0.00 | 0.00 | 39 | 1022.1 |
| 20260502164041 | 59 | 55 | 1.0 | 3.0 | 0.00 | 0.00 | 0.00 | 37 | 1023.1 |
| 20260502163541 | 58 | 0 | 0.0 | 3.0 | 0.00 | 0.00 | 0.00 | 35 | 1023.1 |
| 20260502163107 | 58 | 0 | 0.0 | 3.0 | 0.00 | 0.00 | 0.00 | 34 | 1023.1 |
| 20260502162545 | 58 | 0 | 0.0 | 10.0 | 0.00 | 0.00 | 0.00 | 36 | 1023.1 |
| 20260502162040 | 58 | 0 | 0.0 | 10.0 | 0.00 | 0.00 | 0.00 | 37 | 1023.1 |
| 20260502161549 | 59 | 16 | 2.0 | 10.0 | 0.00 | 0.00 | 0.00 | 39 | 1023.1 |
| 20260502161041 | 57 | 320 | 0.0 | 4.0 | 0.00 | 0.00 | 0.00 | 37 | 1022.9 |
| 20260502160543 | 58 | 0 | 0.0 | 4.0 | 0.00 | 0.00 | 0.00 | 37 | 1023.0 |
| 20260502152039 | 56 | 336 | 0.0 | 7.0 | 0.00 | 0.00 | 0.00 | 40 | 1022.7 |
| 20260502151559 | 55 | 17 | 0.0 | 7.0 | 0.00 | 0.00 | 0.00 | 45 | 1022.8 |
| 20260502151044 | 55 | 0 | 0.0 | 3.0 | 0.00 | 0.00 | 0.00 | 39 | 1022.9 |
| 20260502150544 | 55 | 355 | 0.0 | 3.0 | 0.00 | 0.00 | 0.00 | 41 | 1022.8 |
| 20260502130543 | 43 | 0 | 0.0 | 0.0 | 0.00 | 0.00 | 0.00 | 69 | 1022.5 |
| 20260502130105 | 42 | 0 | 0.0 | 0.0 | 0.00 | 0.00 | 0.00 | 74 | 1022.5 |
| 20260502123542 | 40 | 263 | 0.0 | 3.0 | 0.00 | 0.00 | 0.00 | 76 | 1022.3 |
| 20260502123058 | 39 | 0 | 0.0 | 3.0 | 0.00 | 0.00 | 0.00 | 77 | 1022.2 |
| 20260502122542 | 39 | 0 | 0.0 | 2.0 | 0.00 | 0.00 | 0.00 | 77 | 1022.1 |
| 20260502122043 | 38 | 0 | 0.0 | 2.0 | 0.00 | 0.00 | 0.00 | 77 | 1022.1 |
| 20260502121551 | 38 | 0 | 0.0 | 2.0 | 0.00 | 0.00 | 0.00 | 78 | 1022.1 |
| 20260502121043 | 38 | 0 | 0.0 | 1.0 | 0.00 | 0.00 | 0.00 | 79 | 1022.0 |
| 20260502120543 | 37 | 293 | 0.0 | 1.0 | 0.00 | 0.00 | 0.00 | 80 | 1021.9 |
| 20260502115545 | 36 | 0 | 0.0 | 1.0 | 0.00 | 0.00 | 0.00 | 81 | 1021.8 |
| 20260502115045 | 36 | 0 | 0.0 | 0.0 | 0.00 | 0.00 | 0.00 | 81 | 1021.8 |
| 20260502114555 | 36 | 0 | 0.0 | 0.0 | 0.00 | 0.00 | 0.00 | 81 | 1021.6 |
| 20260502114043 | 36 | 0 | 0.0 | 0.0 | 0.00 | 0.00 | 0.00 | 81 | 1021.6 |
| 20260502113547 | 36 | 0 | 0.0 | 0.0 | 0.00 | 0.00 | 0.00 | 81 | 1021.6 |
| 20260502113056 | 36 | 0 | 0.0 | 0.0 | 0.00 | 0.00 | 0.00 | 81 | 1021.5 |
| 20260502112542 | 36 | 0 | 0.0 | 0.0 | 0.00 | 0.00 | 0.00 | 80 | 1021.5 |
| 20260502112042 | 36 | 0 | 0.0 | 0.0 | 0.00 | 0.00 | 0.00 | 80 | 1021.5 |
| 20260502111549 | 37 | 0 | 0.0 | 0.0 | 0.00 | 0.00 | 0.00 | 80 | 1021.5 |
| 20260502111043 | 36 | 0 | 0.0 | 0.0 | 0.00 | 0.00 | 0.00 | 79 | 1021.5 |
| 20260502110541 | 37 | 0 | 0.0 | 0.0 | 0.00 | 0.00 | 0.00 | 79 | 1021.4 |
| 20260502110051 | 37 | 0 | 0.0 | 0.0 | 0.00 | 0.00 | 0.00 | 79 | 1021.4 |
| 20260502105545 | 37 | 0 | 0.0 | 0.0 | 0.00 | 0.00 | 0.00 | 79 | 1021.4 |
| 20260502105040 | 37 | 0 | 0.0 | 0.0 | 0.00 | 0.00 | 0.00 | 79 | 1021.5 |
| 20260502104552 | 37 | 0 | 0.0 | 0.0 | 0.00 | 0.00 | 0.00 | 78 | 1021.3 |
| 20260502104043 | 37 | 0 | 0.0 | 0.0 | 0.00 | 0.00 | 0.00 | 78 | 1021.3 |
| 20260502103544 | 37 | 0 | 0.0 | 0.0 | 0.00 | 0.00 | 0.00 | 77 | 1021.3 |
| 20260502103048 | 37 | 0 | 0.0 | 0.0 | 0.00 | 0.00 | 0.00 | 77 | 1021.4 |
| 20260502102544 | 38 | 0 | 0.0 | 0.0 | 0.00 | 0.00 | 0.00 | 77 | 1021.3 |
| 20260502102043 | 38 | 0 | 0.0 | 0.0 | 0.00 | 0.00 | 0.00 | 77 | 1021.2 |
| 20260502101551 | 38 | 0 | 0.0 | 0.0 | 0.00 | 0.00 | 0.00 | 76 | 1021.2 |
| 20260502101043 | 38 | 0 | 0.0 | 0.0 | 0.00 | 0.00 | 0.00 | 75 | 1021.1 |
| 20260502100543 | 38 | 0 | 0.0 | 0.0 | 0.00 | 0.00 | 0.00 | 75 | 1021.1 |
| 20260502091040 | 40 | 0 | 0.0 | 0.0 | 0.00 | 0.00 | 0.00 | 70 | 1021.1 |
| 20260502090543 | 40 | 0 | 0.0 | 0.0 | 0.00 | 0.00 | 0.00 | 69 | 1020.9 |
| 20260502071040 | 44 | 0 | 0.0 | 0.0 | 0.00 | 0.00 | 0.00 | 59 | 1020.7 |
| 20260502070543 | 43 | 0 | 0.0 | 0.0 | 0.00 | 0.00 | 0.00 | 60 | 1020.8 |
| 20260502070056 | 43 | 0 | 0.0 | 0.0 | 0.00 | 0.00 | 0.00 | 60 | 1020.7 |
| 20260502065540 | 44 | 0 | 0.0 | 0.0 | 0.00 | 0.00 | 0.00 | 60 | 1020.7 |
| 20260502065040 | 44 | 0 | 0.0 | 0.0 | 0.00 | 0.00 | 0.00 | 59 | 1020.8 |
| 20260502064551 | 44 | 0 | 0.0 | 0.0 | 0.00 | 0.00 | 0.00 | 58 | 1020.8 |
| 20260502064043 | 44 | 0 | 0.0 | 0.0 | 0.00 | 0.00 | 0.00 | 58 | 1021.0 |
| 20260502063543 | 45 | 0 | 0.0 | 0.0 | 0.00 | 0.00 | 0.00 | 58 | 1020.8 |
| 20260502063048 | 45 | 0 | 0.0 | 0.0 | 0.00 | 0.00 | 0.00 | 57 | 1020.8 |
| 20260502062539 | 44 | 0 | 0.0 | 0.0 | 0.00 | 0.00 | 0.00 | 58 | 1020.8 |
| 20260502062039 | 44 | 0 | 0.0 | 0.0 | 0.00 | 0.00 | 0.00 | 58 | 1020.7 |
| 20260502061550 | 44 | 0 | 0.0 | 0.0 | 0.00 | 0.00 | 0.00 | 59 | 1020.7 |
| 20260502061042 | 44 | 0 | 0.0 | 0.0 | 0.00 | 0.00 | 0.00 | 59 | 1020.7 |
| 20260502060543 | 45 | 0 | 0.0 | 0.0 | 0.00 | 0.00 | 0.00 | 58 | 1020.7 |
| 20260502060100 | 45 | 0 | 0.0 | 0.0 | 0.00 | 0.00 | 0.00 | 57 | 1020.6 |
| 20260502055544 | 45 | 0 | 0.0 | 0.0 | 0.00 | 0.00 | 0.00 | 56 | 1020.8 |
| 20260502055043 | 46 | 0 | 0.0 | 0.0 | 0.00 | 0.00 | 0.00 | 54 | 1020.7 |
| 20260502054553 | 47 | 0 | 0.0 | 0.0 | 0.00 | 0.00 | 0.00 | 53 | 1020.6 |
| 20260502054042 | 47 | 0 | 0.0 | 0.0 | 0.00 | 0.00 | 0.00 | 51 | 1020.6 |
| 20260502053540 | 48 | 0 | 0.0 | 0.0 | 0.00 | 0.00 | 0.00 | 50 | 1020.4 |
| 20260502053050 | 48 | 0 | 0.0 | 2.0 | 0.00 | 0.00 | 0.00 | 49 | 1020.6 |
| 20260502052543 | 49 | 0 | 0.0 | 2.0 | 0.00 | 0.00 | 0.00 | 48 | 1020.6 |
| 20260502052043 | 49 | 0 | 0.0 | 5.0 | 0.00 | 0.00 | 0.00 | 48 | 1020.6 |
| 20260502051551 | 50 | 0 | 0.0 | 5.0 | 0.00 | 0.00 | 0.00 | 47 | 1020.6 |
| 20260502051043 | 50 | 0 | 0.0 | 3.0 | 0.00 | 0.00 | 0.00 | 46 | 1020.5 |
| 20260502050540 | 50 | 0 | 0.0 | 3.0 | 0.00 | 0.00 | 0.00 | 46 | 1020.5 |
| 20260502050051 | 50 | 0 | 0.0 | 3.0 | 0.00 | 0.00 | 0.00 | 47 | 1020.5 |
| 20260502045542 | 49 | 0 | 0.0 | 2.0 | 0.00 | 0.00 | 0.00 | 49 | 1020.4 |
| 20260502045044 | 49 | 0 | 0.0 | 0.0 | 0.00 | 0.00 | 0.00 | 48 | 1020.4 |
| 20260502044553 | 49 | 0 | 0.0 | 2.0 | 0.00 | 0.00 | 0.00 | 48 | 1020.3 |
| 20260502044039 | 50 | 0 | 0.0 | 2.0 | 0.00 | 0.00 | 0.00 | 48 | 1020.3 |
| 20260502043542 | 49 | 0 | 0.0 | 2.0 | 0.00 | 0.00 | 0.00 | 48 | 1020.3 |
| 20260502043055 | 50 | 0 | 0.0 | 1.0 | 0.00 | 0.00 | 0.00 | 49 | 1020.3 |
| 20260502042544 | 50 | 0 | 0.0 | 0.0 | 0.00 | 0.00 | 0.00 | 48 | 1020.3 |
| 20260502042041 | 50 | 0 | 0.0 | 2.0 | 0.00 | 0.00 | 0.00 | 48 | 1020.2 |
| 20260502041553 | 51 | 0 | 0.0 | 2.0 | 0.00 | 0.00 | 0.00 | 47 | 1020.2 |
| 20260502041040 | 51 | 0 | 0.0 | 3.0 | 0.00 | 0.00 | 0.00 | 48 | 1020.2 |
| 20260502040540 | 51 | 0 | 0.0 | 3.0 | 0.00 | 0.00 | 0.00 | 47 | 1020.3 |
| 20260502040054 | 51 | 0 | 0.0 | 3.0 | 0.00 | 0.00 | 0.00 | 47 | 1020.2 |
| 20260502035542 | 51 | 0 | 0.0 | 2.0 | 0.00 | 0.00 | 0.00 | 47 | 1020.2 |
| 20260502035040 | 52 | 0 | 0.0 | 2.0 | 0.00 | 0.00 | 0.00 | 47 | 1020.2 |
| 20260502034548 | 52 | 0 | 0.0 | 4.0 | 0.00 | 0.00 | 0.00 | 47 | 1020.3 |
| 20260502034043 | 52 | 0 | 0.0 | 4.0 | 0.00 | 0.00 | 0.00 | 48 | 1020.1 |
| 20260502033542 | 52 | 0 | 0.0 | 4.0 | 0.00 | 0.00 | 0.00 | 47 | 1020.1 |
| 20260502033052 | 53 | 0 | 0.0 | 2.0 | 0.00 | 0.00 | 0.00 | 47 | 1020.1 |
| 20260502032545 | 53 | 0 | 0.0 | 2.0 | 0.00 | 0.00 | 0.00 | 48 | 1020.1 |
| 20260502032043 | 53 | 0 | 0.0 | 1.0 | 0.00 | 0.00 | 0.00 | 48 | 1019.9 |
| 20260502031550 | 53 | 0 | 0.0 | 4.0 | 0.00 | 0.00 | 0.00 | 48 | 1019.9 |
| 20260502031043 | 53 | 0 | 0.0 | 4.0 | 0.00 | 0.00 | 0.00 | 47 | 1019.7 |
| 20260502030541 | 54 | 0 | 0.0 | 2.0 | 0.00 | 0.00 | 0.00 | 48 | 1019.7 |
| 20260502030054 | 53 | 0 | 0.0 | 2.0 | 0.00 | 0.00 | 0.00 | 49 | 1019.7 |
| 20260502025540 | 53 | 63 | 0.0 | 2.0 | 0.00 | 0.00 | 0.00 | 51 | 1019.6 |